DECAYED

FENGYUN 1C DEB, 32363 (Decayed)

Orbit data source: Space-Track

FENGYUN 1C DEB, 32363 was space debris in SSO originally from a launch on Mon, 10 May 1999 UTC launched from the Taiyaun Space Center, China (TSC). Fengyun 1C debris stems from the Chinese weather satellite Fengyun-1C, which was intentionally destroyed by a Chinese anti-satellite missile in 2007. This event dramatically increased the amount of space debris, with thousands of trackable fragments posing hazards to satellites and human spaceflight. The Fengyun 1C debris cloud has become a focal point in discussions about space sustainability and the need for international regulations to prevent the creation of new debris.

Not visible in the next 10 days
Identifier
32363, 1999-025CZG
Orbit
Decayed
Country
Flag of CNCN / PRC
Related business
Manufacturer
Unknown
Mission
Decayed spacecraft
Bus & Motor
Unknown
Mass
Unknown
Launch date (UTC)
1999-05-10 (27 years ago)
Launch vehicle
Unknown
Launch site
Taiyaun Space Center, China (TSC)
Object type
Payload
Rocket body
Debris
Shape & HBR
Unknown shape, 0.1 m
Radar Cross Section
Small (<0.1 m²)

Expand to show TLE details & history
Last TLE update: 6 months ago

TLE from 6 months ago
0 FENGYUN 1C DEB
1 32363U 99025CZG 26067.67496355  .01827255  21916-2  33098-2 0  9994
2 32363  98.3268  46.0691 0024219 176.4868 183.6583 16.01468877981526
Epoch: 2026-03-08T16:11Z
TLE epoch observation values (Epoch: 2026-03-08T16:11:56.850Z)
Latitude
-0.00002°
Longitude
-3.29663°
Altitude
289.594 km
Speed
7.724 km/s
True Right ascension
03h 04m 16s
True Declination
0° 00' 00"
Sunlit
Object was in daylight at epoch
Visualization orbit readout
Latitude
Unknown
Longitude
Unknown
Altitude
Unknown
Speed
Unknown
Apparent Right ascension
Unknown
Apparent Declination
Unknown
Sunlit
N/A
Visualization observer readout
Local Sidereal Time
07:23:32
Azimuth
Unknown
Elevation
Unknown
Doppler factor
Unknown
Orbital elements
Apogee altitude
283.346 km
Perigee altitude
251.157 km
Semi-major axis
6,645.389 km
Eccentricity
0.00242
Inclination
98.3268°
RAAN
46.0691°
Arg. of periapsis
176.4868°
True anomaly
183.64065°
Mean anomaly
183.6583°
Eccentric anomaly
183.64947°
Mean motion
4.00648 °/min
Orbital period
89.85 mins
BSTAR
0.0033098
Loading maneuver chart data...
Computing Atmospheric mass density...

Documentation

Showing up to 5 results
|